#timestamp,LO_Frequency,Hit,StdDev 
1520326815.8,286046999.7,N
1520326835.6,286047000.1,N
1520326855.4,286047002.7,N
1520326875.3,286047002.4,N
1520326895.1,286047000.6,N
1520326915.9,286047001.2,N
1520326935.7,286046999.9,N
1520326955.5,286047000.9,N
1520326975.4,286047001.0,N
1520327025.2,286046998.2,E
1520327035.2,286046999.8,N
1520327055.9,286047001.4,P
1520327075.7,286047001.3,N
1520327095.6,286047004.3,Y
1520327115.4,286047002.4,P
1520327135.2,286047002.2,N
1520327155.1,286046999.7,N
1520327156.0,286046999.7,N
1520327175.8,286047001.4,N
1520327195.7,286047002.6,N
1520327215.5,286047001.6,N
1520327235.3,286046999.9,N
1520327255.2,286047000.4,N
1520327275.0,286046998.6,N
1520327275.9,286046998.6,N
1520327295.8,286046998.5,N
1520327315.6,286047000.7,N
1520327335.4,286046998.2,N
1520327355.3,286047000.8,N
1520327375.1,286046998.4,N
1520327395.8,286046998.7,N
1520327415.7,286046998.3,N
1520327435.5,286046998.3,N
1520327455.3,286047000.9,N
1520327475.2,286047001.0,N
1520327495.0,286047000.1,N
1520327495.9,286047000.1,N
1520327515.8,286046999.8,N
1520327535.6,286047000.1,N
1520327555.4,286047002.8,N
1520327575.3,286047002.6,N
1520327595.1,286047001.5,N
1520327615.9,286047001.4,N
1520327635.7,286047002.1,N
1520327655.5,286047002.1,N
1520327675.4,286047003.9,N
1520327695.2,286047001.6,N
1520327715.0,286047001.5,N
1520327715.9,286047001.5,N
1520327735.8,286047001.3,N
1520327755.6,286047002.1,N
1520327775.5,286047001.8,N
1520327795.3,286047002.6,N
1520327815.1,286047002.1,N
1520327835.9,286047002.3,N
1520327855.7,286047001.9,N
1520327875.5,286047001.8,N
1520327895.4,286047002.6,N
1520327915.2,286047001.5,N
1520327935.1,286047001.8,N
1520327936.0,286047001.8,N
1520327955.8,286047001.9,N
1520327975.6,286047001.5,N
1520327995.5,286047001.8,N
1520328015.3,286047001.6,N
1520328035.1,286047004.1,Y
1520328055.9,286047000.2,P
1520328075.7,286046999.8,N
1520328095.6,286047000.9,N
1520328115.4,286047000.8,N
1520328135.2,286046998.9,N
1520328155.1,286046998.8,N
1520328156.0,286046998.8,N
1520328175.8,286046998.4,N
1520328195.7,286047001.0,N
1520328215.5,286047001.1,N
1520328235.3,286046999.5,N
1520328255.2,286046996.6,Y
1520328275.0,286046999.0,P
1520328275.9,286046999.0,N
1520328295.7,286046999.2,N
1520328315.6,286046999.1,N
1520328335.4,286046998.2,Y
1520328355.3,286047000.4,P
1520328375.1,286047002.8,P
1520328395.8,286046999.9,N
1520328415.7,286047000.1,N
1520328435.5,286046999.9,N
1520328455.4,286047000.1,N
1520328475.2,286046999.7,N
1520328495.0,286047000.0,N
1520328495.9,286047000.0,N
1520328515.8,286046999.7,N
1520328535.6,286047002.2,N
1520328555.4,286047000.1,N
1520328575.3,286047002.0,N
1520328595.1,286047002.8,N
1520328615.9,286047000.4,N
1520328635.7,286047000.0,N
1520328655.5,286046999.7,N
1520328675.4,286047000.1,N
1520328695.2,286047002.8,N
1520328715.1,286047000.2,N
1520328716.0,286047000.2,N
1520328735.8,286047000.4,N
1520328755.6,286047002.0,N
1520328775.5,286047001.6,N
1520328795.3,286047002.0,N
1520328815.2,286047000.6,N
1520328835.9,286047000.2,N
1520328855.7,286047000.0,N
1520328875.6,286047000.9,N
1520328895.4,286047000.6,N
1520328915.2,286047002.8,N
1520328935.1,286047000.2,N
1520328936.0,286047000.2,N
1520328955.8,286046999.8,N
1520328975.7,286047000.1,N
1520328995.5,286046999.8,N
1520329015.3,286047000.4,N
1520329035.2,286047000.4,N
1520329055.0,286047000.4,N
1520329055.9,286047000.4,N
1520329075.7,286047000.1,N
1520329095.6,286047002.8,N
1520329115.4,286046999.7,N
1520329135.3,286046999.8,N
1520329155.1,286047002.8,Y
1520329156.0,286047002.8,P
1520329175.8,286047000.2,N
1520329195.7,286047000.7,N
1520329215.5,286047001.0,N
1520329235.3,286047000.0,N
1520329255.2,286047000.4,N
1520329275.0,286046999.8,N
1520329275.9,286046999.8,N
1520329295.8,286047000.1,N
1520329315.6,286047002.6,Y
1520329335.5,286046999.8,P
1520329355.3,286047000.3,N
1520329375.1,286047001.0,P
1520329395.9,286047001.0,N
1520329415.7,286046999.9,N
1520329435.6,286047000.9,N
1520329455.4,286047000.9,N
1520329475.2,286047000.8,N
1520329495.1,286046998.3,Y
1520329496.0,286046998.3,P
1520329515.8,286046996.6,P
1520329535.7,286046998.8,N
1520329555.5,286046999.1,N
1520329575.3,286046996.6,N
1520329595.2,286046999.0,N
1520329615.0,286046998.3,N
1520329615.9,286046998.3,N
1520329635.8,286046998.6,N
1520329655.6,286046998.3,N
1520329675.4,286046999.0,N
1520329695.3,286046999.6,N
1520329715.1,286046999.2,N
1520329735.8,286046996.5,Y
1520329755.7,286046998.2,P
1520329775.5,286047000.5,N
1520329795.4,286047000.6,N
1520329815.2,286046999.7,N
1520329835.0,286047002.8,N
1520329835.9,286047002.8,N
1520329855.8,286047002.5,N
1520329875.6,286047002.8,N
1520329895.4,286047002.5,N
1520329915.3,286047002.5,N
1520329935.1,286047001.8,N
1520329955.9,286047002.5,N
1520329975.7,286047004.2,N
1520329995.5,286047003.8,N
1520330015.4,286047003.7,N
1520330035.2,286047004.3,N
1520330055.0,286047003.9,N
1520330055.9,286047003.9,N
1520330075.8,286047004.0,N
1520330095.6,286047001.6,N
1520330115.5,286047001.6,N
1520330135.3,286047002.3,N
1520330155.1,286046999.9,N
1520330175.9,286046999.7,N
1520330195.7,286046999.9,N
1520330215.5,286047000.1,N
1520330235.4,286047000.3,N
1520330255.2,286047001.3,N
1520330275.1,286047001.6,N
1520330276.0,286047001.6,N
1520330295.8,286047002.1,N
1520330315.6,286047002.8,N
1520330335.5,286047002.6,N
1520330355.3,286047001.4,N
1520330375.1,286047002.1,N
1520330395.9,286047002.2,N
